K0VXP-1 Weather Reports


time (UTC)temp
C
wind
direction
speed
KPH
gust
KPH
rain 1hr
cm
rain 24hr
cm
rain mn
cm
humidity
%
barometer
mb
20220124111515 -8 0 0.0 0.0 0.00 0.00 0.00 80 1019.1
20220124110013 -9 0 0.0 4.8 0.00 0.00 0.00 79 1019.3
20220124104532 -9 75 1.6 6.4 0.00 0.00 0.00 79 1019.4
20220124103031 -10 74 4.8 8.0 0.00 0.00 0.00 77 1019.5
20220124101517 -9 0 0.0 4.8 0.00 0.00 0.00 78 1019.5
20220124100024 -8 51 1.6 4.8 0.00 0.00 0.00 79 1019.8
20220124094519 -9 51 1.6 6.4 0.00 0.00 0.00 78 1019.8
20220124093013 -9 51 3.2 8.0 0.00 0.00 0.00 76 1019.9
20220124091536 -8 0 0.0 4.8 0.00 0.00 0.00 76 1019.8
20220124090019 -8 0 0.0 4.8 0.00 0.00 0.00 76 1020.1
20220124084521 -8 84 3.2 4.8 0.00 0.00 0.00 75 1020.1
20220124083039 -7 0 0.0 0.0 0.00 0.00 0.00 74 1020.1
20220124081537 -7 0 0.0 0.0 0.00 0.00 0.00 75 1020.2
20220124080018 -7 0 0.0 0.0 0.00 0.00 0.00 74 1020.4
20220124074528 -7 0 0.0 0.0 0.00 0.00 0.00 74 1020.5
20220124073018 -7 0 0.0 4.8 0.00 0.00 0.00 72 1020.6
20220124071545 -7 92 3.2 6.4 0.00 0.00 0.00 71 1020.8
20220124070045 -7 0 0.0 0.0 0.00 0.00 0.00 72 1021.1
20220124064535 -7 0 0.0 4.8 0.00 0.00 0.00 71 1021.0
20220124063015 -7 92 1.6 6.4 0.00 0.00 0.00 71 1021.1
20220124061511 -7 93 3.2 6.4 0.00 0.00 0.00 70 1021.4
20220124060015 -6 93 1.6 4.8 0.00 0.00 0.00 69 1021.3
20220124054558 -6 0 0.0 0.0 0.00 0.00 0.00 68 1021.4
20220124053036 -6 0 0.0 0.0 0.00 0.00 0.00 68 1021.6
20220124051510 -6 0 0.0 4.8 0.00 0.00 0.00 70 1021.6
20220124050011 -6 94 1.6 4.8 0.00 0.00 0.00 70 1021.6
20220124044510 -6 94 3.2 9.7 0.00 0.00 0.00 70 1021.7
20220124043013 -6 93 4.8 9.7 0.00 0.00 0.00 68 1021.7
20220124041555 -6 94 3.2 6.4 0.00 0.00 0.00 67 1021.8
20220124040109 -5 96 3.2 6.4 0.00 0.00 0.00 66 1021.8
20220124034515 -5 0 0.0 0.0 0.00 0.00 0.00 66 1022.1
20220124033050 -5 98 3.2 6.4 0.00 0.00 0.00 66 1022.3
20220124031511 -5 99 3.2 4.8 0.00 0.00 0.00 66 1022.3
20220124030015 -5 100 3.2 6.4 0.00 0.00 0.00 65 1022.4
20220124024520 -4 0 0.0 0.0 0.00 0.00 0.00 63 1022.2
20220124023010 -3 0 0.0 0.0 0.00 0.00 0.00 62 1022.5
20220124021513 -2 0 0.0 0.0 0.00 0.00 0.00 60 1022.4
20220124020009 -2 0 0.0 0.0 0.00 0.00 0.00 61 1022.2
20220124014510 -2 0 0.0 0.0 0.00 0.00 0.00 61 1022.2
20220124013011 -2 0 0.0 0.0 0.00 0.00 0.00 61 1022.1
20220124011537 -2 0 0.0 0.0 0.00 0.00 0.00 61 1022.0
20220124010010 -2 0 0.0 0.0 0.00 0.00 0.00 61 1021.9
20220124004512 -2 0 0.0 0.0 0.00 0.00 0.00 60 1021.9
20220124003028 -1 0 0.0 0.0 0.00 0.00 0.00 57 1022.0
20220124001510 0 0 0.0 3.2 0.00 0.00 0.00 52 1021.9
20220124000017 1 0 0.0 3.2 0.00 0.00 0.00 50 1022.0
20220123234529 1 0 0.0 0.0 0.00 0.00 0.00 51 1021.9
20220123233013 1 0 0.0 0.0 0.00 0.00 0.00 51 1021.8
20220123231518 1 0 0.0 3.2 0.00 0.00 0.00 50 1021.7
20220123230015 2 0 0.0 3.2 0.00 0.00 0.00 50 1021.9
20220123224518 2 0 0.0 0.0 0.00 0.00 0.00 49 1021.9
20220123223020 2 0 0.0 8.0 0.00 0.00 0.00 49 1022.1
20220123221525 1 0 0.0 6.4 0.00 0.00 0.00 50 1022.1
20220123220020 2 242 0.0 8.0 0.00 0.00 0.00 50 1022.3
20220123214515 1 0 0.0 0.0 0.00 0.00 0.00 51 1022.3
20220123213020 1 0 0.0 0.0 0.00 0.00 0.00 50 1022.5
20220123211514 0 0 0.0 0.0 0.00 0.00 0.00 52 1022.6
20220123210010 0 0 0.0 0.0 0.00 0.00 0.00 53 1022.8
20220123204510 0 0 0.0 0.0 0.00 0.00 0.00 51 1022.9
20220123203013 0 0 0.0 0.0 0.00 0.00 0.00 56 1023.1
20220123201509 -1 0 0.0 0.0 0.00 0.00 0.00 56 1023.4
20220123200035 -1 0 0.0 0.0 0.00 0.00 0.00 57 1023.9
20220123194516 0 0 0.0 0.0 0.00 0.00 0.00 57 1024.1
20220123193014 0 0 0.0 0.0 0.00 0.00 0.00 57 1024.3
20220123191550 -1 0 0.0 0.0 0.00 0.00 0.00 59 1024.8
20220123190113 -1 0 0.0 0.0 0.00 0.00 0.00 62 1025.0
20220123184525 -2 0 0.0 0.0 0.00 0.03 0.00 62 1025.3
20220123183102 -2 0 0.0 0.0 0.00 0.03 0.00 62 1025.7
20220123181512 -3 0 0.0 0.0 0.00 0.03 0.00 64 1025.9
20220123180018 -3 0 0.0 0.0 0.00 0.03 0.00 65 1025.9
20220123174509 -4 0 0.0 0.0 0.00 0.03 0.00 67 1025.9
20220123173010 -5 0 0.0 0.0 0.00 0.03 0.00 67 1026.3
20220123171512 -6 0 0.0 0.0 0.00 0.03 0.00 68 1026.2
20220123170033 -6 0 0.0 0.0 0.00 0.03 0.00 67 1026.3
20220123164509 -5 0 0.0 0.0 0.00 0.03 0.00 69 1026.2
20220123163050 -5 0 0.0 0.0 0.00 0.03 0.00 68 1026.5
20220123161517 -5 0 0.0 0.0 0.00 0.03 0.00 70 1026.5
20220123160009 -6 0 0.0 0.0 0.00 0.03 0.00 76 1026.6
20220123154518 -7 0 0.0 0.0 0.00 0.03 0.00 79 1026.5
20220123153018 -8 0 0.0 0.0 0.00 0.03 0.00 82 1026.4
20220123151530 -9 0 0.0 0.0 0.00 0.03 0.00 85 1026.3
20220123150009 -11 0 0.0 0.0 0.00 0.03 0.00 84 1026.3
20220123144514 -11 0 0.0 0.0 0.00 0.03 0.00 85 1026.4
20220123143009 -11 0 0.0 0.0 0.00 0.03 0.00 83 1026.6
20220123141509 -11 0 0.0 0.0 0.00 0.03 0.00 83 1026.5
20220123140018 -11 0 0.0 0.0 0.00 0.03 0.00 84 1026.5
20220123134536 -11 0 0.0 0.0 0.00 0.03 0.00 84 1026.5
20220123133014 -11 0 0.0 0.0 0.00 0.03 0.00 84 1026.7
20220123131511 -11 0 0.0 0.0 0.00 0.03 0.00 85 1026.6
20220123130049 -11 0 0.0 0.0 0.00 0.03 0.00 84 1026.6
20220123124509 -11 0 0.0 0.0 0.00 0.03 0.00 83 1026.6
20220123123010 -11 0 0.0 0.0 0.00 0.03 0.00 82 1026.7
20220123121517 -10 0 0.0 0.0 0.00 0.03 0.00 82 1026.6
20220123120027 -9 0 0.0 0.0 0.00 0.03 0.00 82 1026.7
20220123114509 -9 0 0.0 0.0 0.00 0.03 0.00 82 1026.8
20220123113015 -9 0 0.0 0.0 0.00 0.03 0.00 83 1026.7